Wind_Speed
72 72 70 68 67 64 63 62 57 55 56 59 58 55 56 57 54 52 51 50 52 54 50 48 46 45 42 41 42 41 38 38 38 36 36 36 38 38 33 31 29 26 24 23 21 21 21 23 25 25 23 22 22 23 26 31 34 34 32 31 29 29 29
74 74 73 72 70 67 63 60 58 60 63 61 57 55 57 54 50 50 50 50 52 50 47 46 45 44 41 39 40 40 39 39 38 38 39 40 41 40 36 33 31 28 26 25 25 24 23 25 25 24 22 21 21 22 26 31 36 37 35 34 33 33 32
77 78 78 75 71 66 62 60 62 64 62 58 55 55 55 52 50 51 51 51 50 47 46 46 44 43 42 40 40 39 39 39 39 41 43 45 44 43 41 37 33 31 29 27 27 26 24 24 25 25 24 22 22 23 25 31 37 39 38 37 36 36 35
82 83 80 74 68 65 63 63 64 63 60 58 56 55 54 53 52 52 51 49 47 46 47 45 43 43 42 40 39 40 40 40 41 44 48 49 46 44 45 41 36 35 32 29 28 26 23 22 23 25 26 25 24 24 26 31 37 40 41 40 39 38 35
86 84 77 68 65 65 64 63 63 61 59 57 55 55 54 52 51 51 49 48 46 47 47 44 42 42 41 39 39 41 42 42 43 47 50 51 48 45 47 44 40 37 34 30 28 26 24 23 22 24 27 29 28 26 27 32 38 42 42 42 41 39 35
86 80 72 67 67 68 66 65 64 63 61 58 55 55 54 52 51 50 48 47 47 47 44 41 41 41 38 39 40 42 44 44 45 48 51 50 47 46 47 46 42 38 35 33 31 28 27 25 23 23 26 30 32 29 29 33 39 42 43 43 42 39 36
83 77 73 71 72 72 71 69 68 66 64 60 56 55 56 54 52 51 49 48 48 46 42 40 39 37 38 41 42 43 46 48 46 48 51 50 48 48 47 45 44 40 37 36 34 31 29 26 22 22 25 30 31 30 29 33 39 43 44 44 43 40 38
81 79 77 75 76 77 75 71 68 65 63 60 57 57 59 57 54 53 50 48 48 47 42 40 38 37 41 44 44 45 48 49 48 49 52 52 50 50 48 46 46 42 38 37 35 32 31 28 23 22 25 28 30 31 30 32 38 42 45 45 44 42 41
83 82 81 78 77 77 72 67 64 62 61 61 60 60 60 58 55 53 51 49 50 48 43 40 39 41 44 44 43 44 47 48 46 47 52 52 51 51 51 50 48 43 40 39 37 34 33 30 25 23 24 28 31 33 32 33 36 41 46 47 46 44 44
84 82 81 75 71 70 66 62 61 61 62 63 61 60 60 57 55 53 52 51 50 47 42 40 41 44 44 41 41 43 45 45 44 46 51 53 53 53 53 52 50 46 44 42 39 37 35 32 28 26 27 30 34 35 35 35 36 40 46 48 47 46 46
84 82 79 72 68 68 66 63 62 62 63 63 62 61 58 56 56 54 52 52 49 45 42 42 43 43 40 38 40 43 43 44 44 47 51 54 55 55 55 54 52 50 49 46 42 40 37 33 31 29 30 34 36 37 37 38 38 40 45 48 49 48 47
86 83 79 75 72 71 69 66 64 63 63 62 61 60 58 57 57 55 52 51 47 43 44 45 43 40 37 37 39 41 43 44 45 47 51 55 55 55 55 56 54 53 51 49 45 42 38 36 34 32 32 35 37 38 39 40 41 42 44 47 49 49 48
86 84 82 80 77 74 72 70 66 63 63 62 59 59 60 59 58 55 53 51 47 45 47 47 43 38 35 36 38 40 41 42 44 47 50 53 55 55 56 56 55 54 52 50 48 44 41 39 38 35 34 34 36 38 39 42 44 44 45 46 48 49 48
85 87 86 83 79 75 73 71 67 63 63 62 61 62 63 61 59 56 53 50 48 49 51 49 43 38 36 36 37 38 40 42 45 48 49 51 53 55 56 56 56 54 52 51 50 47 44 42 40 38 36 34 35 37 38 41 44 46 46 46 47 47 48
85 86 85 83 81 78 75 73 70 65 62 63 65 66 65 63 62 58 54 52 52 52 52 49 44 41 39 39 38 37 39 42 45 47 48 49 51 53 54 56 56 54 53 52 50 48 46 45 42 39 37 35 34 35 37 40 43 46 47 46 46 46 47
83 82 82 83 82 78 75 73 70 66 63 64 66 67 65 64 63 61 57 55 55 53 52 50 48 45 42 40 39 39 41 42 43 45 46 47 49 52 54 57 57 56 54 53 51 49 48 46 44 42 39 37 35 35 36 38 41 44 46 47 47 46 46
82 79 80 83 80 75 73 71 70 69 66 66 67 68 67 66 66 64 61 57 56 55 54 53 51 46 42 40 40 41 42 43 42 43 44 45 48 51 54 56 58 57 56 55 53 52 50 48 47 45 43 40 38 35 34 35 38 42 45 47 47 46 46
81 79 80 83 79 75 74 72 72 74 74 73 71 70 70 69 68 66 64 61 60 59 58 56 52 47 45 44 43 42 43 44 44 44 43 43 44 46 49 53 55 57 56 56 55 55 54 52 51 48 45 43 41 38 34 33 35 39 43 45 47 47 46
81 78 80 81 78 75 74 73 76 80 80 78 75 72 73 74 72 69 68 66 65 63 62 59 53 48 47 47 47 46 45 44 44 43 41 40 39 41 46 50 53 55 55 56 58 58 57 55 53 51 47 44 42 40 37 35 34 36 39 43 45 47 46
80 79 81 82 79 76 76 78 81 83 81 78 77 76 78 79 76 73 72 71 70 67 64 62 57 52 49 49 50 49 46 44 43 41 39 37 36 38 42 46 49 51 54 57 58 58 57 55 54 52 49 45 42 40 39 38 38 36 37 39 43 45 46
82 83 83 83 81 79 82 84 86 86 84 82 80 81 82 80 77 75 74 73 73 71 67 64 61 57 53 52 51 49 47 45 42 39 38 37 35 35 37 41 44 49 53 57 58 57 57 55 54 54 51 48 46 43 42 41 41 39 38 38 40 43 45
86 86 86 86 85 84 86 87 88 88 87 85 83 83 83 81 79 79 77 73 74 75 70 63 59 58 57 54 51 49 48 46 42 39 37 37 35 33 34 38 42 47 52 55 57 57 56 56 55 54 53 50 48 46 45 44 43 42 41 40 39 40 42
89 89 89 89 89 88 88 88 88 89 87 85 84 83 83 82 82 84 82 78 75 75 70 63 58 57 57 53 48 47 47 46 43 39 37 37 36 34 35 38 41 44 47 50 54 55 56 57 57 56 54 52 50 49 48 47 45 44 44 43 41 40 41
90 90 91 91 90 89 89 88 88 88 86 85 84 83 83 84 85 85 86 82 75 69 65 60 56 54 52 49 46 46 46 46 44 41 38 37 37 36 36 38 39 39 42 46 50 52 55 56 57 57 56 55 54 52 51 50 49 48 47 46 44 43 42
91 91 93 92 90 89 89 89 88 87 86 86 87 87 86 86 85 85 84 80 71 65 61 56 51 48 47 48 49 50 50 47 45 44 42 40 39 38 36 37 38 37 38 42 45 48 53 55 56 57 57 56 55 55 54 53 52 51 49 48 47 46 45
92 93 94 93 91 91 91 90 89 87 88 89 90 90 90 89 85 83 82 76 68 64 61 57 50 46 46 50 54 56 56 52 49 47 46 44 41 39 38 38 38 36 36 38 41 45 49 53 55 56 57 56 56 55 55 55 54 52 51 50 49 48 48
93 94 95 95 93 93 93 92 91 90 90 91 91 91 91 90 86 82 79 74 69 65 63 59 55 52 52 55 59 61 63 60 55 52 51 47 42 40 39 40 40 38 37 38 40 42 46 48 50 53 54 56 56 55 55 55 54 53 52 51 51 50 50
97 97 98 97 95 95 95 95 95 95 93 92 92 92 92 91 87 81 76 73 69 67 64 60 59 60 62 63 65 66 67 64 59 55 53 50 44 41 41 43 42 40 39 39 39 41 42 43 45 47 50 52 53 53 54 55 54 54 54 53 53 52 51
99 99 99 98 97 97 97 97 97 98 96 94 94 94 93 91 87 80 75 72 70 68 65 63 63 65 67 67 67 67 67 65 62 57 55 52 48 44 43 45 44 41 40 40 40 40 41 41 41 42 44 46 48 50 51 52 53 53 53 54 53 53 52
99 99 99 99 99 98 98 98 98 98 98 96 95 94 92 90 87 82 77 74 72 70 68 66 66 68 70 70 68 67 66 66 64 61 57 54 51 48 46 46 46 43 42 42 42 42 41 41 40 40 40 42 44 45 47 48 49 50 51 51 52 52 52
102 102 101 100 100 99 98 98 99 99 100 99 97 96 94 92 88 84 79 77 75 73 71 70 70 71 71 71 70 68 67 67 66 63 60 55 53 51 49 48 47 46 44 44 45 44 43 42 41 40 40 40 41 42 43 44 46 47 47 48 49 51 52
106 105 103 101 99 98 99 100 101 100 100 101 100 99 97 95 91 85 80 78 77 75 74 73 73 73 72 72 71 69 68 68 67 65 61 57 55 53 51 50 48 47 46 46 47 47 46 45 43 42 42 42 41 41 41 42 43 44 44 45 46 47 48
108 106 104 103 101 99 101 102 102 100 100 100 100 100 98 95 92 87 81 78 78 77 76 75 73 73 73 73 72 70 69 69 68 65 63 60 57 55 54 52 50 49 48 48 48 49 49 48 46 45 45 44 44 43 43 43 43 43 43 43 44 44 44
109 107 106 106 104 103 103 103 101 99 99 98 97 97 97 94 90 87 83 80 79 78 77 75 73 73 74 73 72 72 71 70 69 67 64 62 59 58 56 55 54 52 51 50 50 50 51 50 49 49 48 48 48 47 46 45 45 44 44 43 44 44 44
109 107 106 106 104 103 103 102 99 98 97 95 94 94 93 90 88 86 85 83 81 80 79 76 74 74 74 74 73 72 71 71 70 68 66 63 61 60 58 57 57 55 54 53 53 52 52 52 52 51 51 51 51 50 49 47 46 45 45 45 45 46 45
110 108 106 104 102 101 100 99 97 97 95 94 93 92 90 88 87 87 86 85 83 82 80 77 76 76 75 74 73 73 72 71 70 69 67 65 63 62 61 60 59 58 56 55 55 54 54 55 54 54 53 53 52 52 51 50 48 47 46 46 47 47 46
110 109 106 104 102 100 98 96 95 94 92 91 90 89 87 87 88 88 88 87 85 82 79 77 76 76 76 75 74 73 73 72 71 70 68 67 65 64 63 63 61 60 58 57 57 56 56 56 57 57 56 55 54 53 52 52 51 50 49 48 48 48 48
Wind_Direction
227 228 227 227 229 230 231 232 233 234 234 234 233 234 236 237 238 240 243 244 245 246 247 248 249 249 249 249 250 249 243 235 228 222 219 224 231 227 222 225 226 224 225 222 218 219 220 223 224 216 209 209 214 219 218 212 207 204 204 204 204 204 203
228 229 229 227 227 227 228 230 231 231 232 233 233 234 237 238 239 241 242 243 244 247 248 247 246 246 244 243 244 244 240 234 227 218 215 220 228 229 223 222 225 225 226 225 220 217 214 216 221 219 216 214 215 218 219 215 209 206 205 204 203 204 204
227 228 228 227 227 228 227 228 230 231 232 233 233 235 238 239 239 241 241 242 244 246 247 246 244 244 242 238 238 239 237 234 225 215 212 216 223 229 225 219 221 225 226 227 225 220 218 217 217 216 215 216 216 215 218 219 214 209 207 205 205 205 205
227 228 228 227 228 229 229 229 231 232 232 233 233 234 237 237 238 240 241 243 244 244 244 243 243 242 241 238 235 234 233 231 225 216 213 215 217 225 228 219 218 224 225 227 229 225 223 224 221 218 215 215 216 213 216 220 217 213 210 208 209 210 208
227 228 228 228 229 230 230 231 233 234 234 234 234 235 237 238 240 241 242 243 243 242 242 242 242 242 241 239 234 231 229 228 225 220 218 217 214 221 229 222 216 221 223 224 228 226 224 225 222 220 218 216 216 213 213 218 219 217 215 214 214 214 212
229 229 228 227 228 229 229 229 230 232 233 233 233 235 237 238 239 241 242 242 241 241 241 241 241 242 241 238 234 230 227 225 224 222 222 221 215 216 228 228 219 219 222 223 224 224 224 225 224 222 221 219 217 213 210 215 220 220 220 219 218 217 213
229 229 226 225 226 227 226 226 226 228 230 230 230 233 236 235 236 238 238 238 239 238 237 236 237 237 236 234 231 228 225 222 220 220 223 224 218 214 222 230 224 219 222 225 223 222 223 226 227 225 222 219 219 215 209 211 218 222 223 223 221 218 214
228 227 225 223 223 225 224 224 225 227 230 230 229 230 233 233 233 235 236 236 237 236 233 232 231 230 231 230 227 226 226 223 218 218 221 222 220 214 215 226 227 220 222 227 225 224 225 225 227 228 223 219 219 217 209 207 215 222 225 225 222 219 216
228 227 226 223 223 226 225 224 225 227 229 230 229 229 232 233 232 234 235 235 236 235 232 230 228 227 229 230 227 227 228 226 221 219 221 222 221 217 214 220 225 221 222 227 226 226 228 228 230 230 225 218 217 217 210 205 212 220 224 225 223 221 218
229 229 229 227 226 229 228 225 225 225 227 229 229 229 231 233 233 234 235 235 236 235 232 230 229 229 230 230 229 228 228 227 222 220 222 222 221 218 216 218 221 221 221 224 226 226 227 229 231 231 225 216 214 216 211 205 208 217 222 224 223 222 220
231 230 231 229 226 227 228 226 224 224 225 226 228 229 230 231 233 233 234 235 235 234 233 231 229 230 230 229 229 229 228 227 222 218 221 222 220 218 217 217 219 219 220 222 224 226 226 226 228 230 226 219 215 215 212 206 206 212 218 221 223 223 222
231 230 230 228 225 224 225 224 222 222 224 225 226 228 229 229 231 231 232 233 232 231 233 233 230 230 230 228 230 229 228 227 223 219 220 222 221 219 218 218 218 219 220 221 222 225 226 225 226 229 228 225 221 219 214 209 206 209 214 218 221 223 224
228 228 228 226 224 223 224 223 220 219 221 223 224 227 228 228 229 229 229 230 228 227 231 232 228 225 225 226 229 230 229 228 226 222 221 221 221 220 219 218 218 219 220 221 222 223 226 226 225 228 230 229 228 225 220 214 209 208 212 216 220 223 224
226 227 226 226 224 222 223 224 222 218 219 221 221 223 226 227 228 227 227 227 225 224 228 230 225 219 219 221 224 226 227 227 226 224 222 221 221 221 220 219 219 219 220 221 222 223 225 226 226 227 230 232 231 230 226 221 216 212 212 216 219 222 224
222 225 226 226 224 222 221 222 222 219 218 220 221 222 223 225 227 226 225 226 225 225 228 229 225 218 214 216 221 224 226 226 225 226 224 221 221 222 221 221 220 220 220 221 223 224 225 227 227 228 230 232 233 232 230 227 224 220 217 217 219 221 224
219 222 225 227 226 223 222 223 223 221 217 219 223 224 223 224 226 226 224 224 226 226 227 228 226 219 214 215 221 225 226 225 225 226 225 222 221 220 220 221 220 218 218 219 221 223 226 227 228 229 230 231 231 232 231 230 229 227 224 222 222 223 225
216 218 222 226 225 224 222 222 224 223 219 217 221 224 223 222 224 225 224 223 225 226 226 227 226 222 214 213 218 224 227 226 224 225 224 222 221 220 221 221 221 219 217 218 220 222 224 226 227 229 229 229 229 230 231 232 232 231 230 228 226 226 227
214 214 218 223 223 221 220 219 221 222 220 216 216 219 222 221 221 224 224 222 223 225 225 225 225 221 213 210 213 220 224 225 224 224 224 223 222 222 223 224 224 222 219 219 220 222 224 225 226 227 228 229 229 229 231 232 233 233 233 232 231 230 230
212 211 215 220 220 219 218 217 218 220 220 217 214 215 219 220 218 220 222 222 221 223 225 224 222 217 211 209 212 218 222 226 226 225 224 225 224 223 224 225 226 225 223 221 221 223 224 226 226 227 229 231 229 228 230 233 235 236 236 235 234 233 232
212 211 212 216 217 217 216 215 217 219 220 218 216 215 219 221 218 216 219 222 221 221 223 224 222 218 214 211 213 219 223 227 229 227 224 225 225 224 224 226 227 227 225 224 224 224 225 227 228 230 231 231 230 230 233 236 238 239 238 236 235 234 234
210 210 211 213 214 215 215 215 216 218 219 218 217 216 218 222 221 219 218 220 222 221 220 222 223 222 221 217 214 218 223 227 230 230 227 227 228 227 226 226 225 225 225 226 226 226 226 227 230 232 233 233 234 236 237 237 238 239 239 238 237 236 236
209 209 209 210 211 213 215 215 216 218 219 219 218 217 217 219 222 223 219 218 221 221 219 219 221 222 224 222 217 217 223 227 230 230 229 228 229 228 228 227 225 224 224 225 226 226 226 228 230 232 234 235 236 237 238 237 238 239 240 240 240 239 238
208 208 209 209 209 211 214 215 217 218 219 219 219 219 219 218 220 224 222 219 220 222 219 217 218 221 225 225 221 219 223 227 229 230 229 230 230 230 230 231 228 226 225 226 226 226 227 228 229 231 234 236 236 237 238 239 238 238 239 240 241 241 241
208 208 209 209 209 209 212 214 216 218 219 221 221 221 221 220 220 223 225 223 223 226 226 223 223 226 229 230 228 225 224 226 228 228 228 228 230 231 232 234 232 227 227 228 228 227 227 228 229 230 232 234 236 236 237 238 238 238 239 240 241 241 242
208 208 210 210 209 209 211 213 215 216 218 220 222 222 222 221 220 222 226 226 225 228 231 232 231 232 232 232 233 232 229 226 226 228 227 225 226 228 232 236 235 229 227 228 228 228 229 229 229 229 230 232 234 235 236 237 238 239 239 240 241 241 242
209 209 210 210 208 208 210 212 213 215 217 219 221 222 223 223 221 220 224 226 225 224 227 229 230 229 228 228 231 233 232 227 224 225 227 224 222 224 228 234 236 233 230 229 228 228 229 229 230 231 231 232 233 234 236 237 238 239 240 240 240 241 241
209 210 211 210 209 208 208 210 211 214 216 219 221 223 225 225 223 221 221 224 223 222 222 223 223 222 222 224 227 229 231 229 224 224 227 226 223 222 226 232 235 235 234 232 231 230 230 229 230 231 232 233 234 235 236 237 238 240 240 241 241 242 242
209 210 211 210 209 208 208 208 209 211 214 217 220 222 224 226 225 222 220 221 222 222 221 219 218 218 220 223 224 226 230 231 228 226 227 228 225 221 223 228 232 235 236 236 235 234 233 231 230 231 232 233 235 235 236 237 238 239 240 241 242 243 244
209 210 211 210 209 209 209 208 209 210 212 214 217 220 222 225 225 222 220 220 221 222 220 217 216 217 220 223 225 226 229 232 231 228 227 229 228 224 222 226 229 232 235 237 238 237 236 234 232 231 232 233 234 235 236 236 237 238 239 241 242 243 244
209 211 212 211 209 209 210 209 209 210 211 213 216 219 221 223 224 222 219 218 219 220 220 218 216 216 220 224 226 227 229 232 233 231 229 228 230 229 227 226 228 229 231 235 238 238 238 236 235 234 234 234 234 235 235 236 236 237 238 240 241 241 242
209 211 212 212 210 210 210 210 210 210 210 212 215 217 219 221 222 221 218 217 217 218 218 219 218 217 219 222 225 227 229 231 232 233 230 228 228 230 230 229 228 227 227 231 234 237 238 237 236 236 236 236 235 235 235 236 236 236 237 238 239 240 240
208 210 212 213 212 211 210 211 211 211 211 211 212 215 217 219 220 220 218 216 216 217 217 218 219 219 220 222 224 226 229 231 232 232 231 229 228 229 230 230 228 227 226 228 231 234 236 238 237 237 237 238 237 235 235 235 236 235 235 236 238 240 240
208 209 210 212 212 211 211 212 212 211 212 212 212 214 215 216 218 219 218 217 217 217 217 217 218 220 221 222 223 225 228 231 232 232 232 230 228 229 229 229 229 228 227 228 230 232 234 235 237 237 238 238 239 237 235 235 236 236 235 235 236 238 239
208 208 209 210 211 211 211 212 211 211 212 213 213 213 215 215 216 218 218 218 217 218 218 217 217 219 221 223 224 225 227 230 232 232 232 230 229 229 229 229 229 230 229 229 230 233 234 234 235 237 238 238 238 238 237 236 236 236 236 235 236 237 238
208 209 210 211 211 211 211 212 212 212 213 213 214 214 215 214 215 217 219 219 218 219 219 218 218 219 221 223 224 225 227 230 232 232 232 231 231 230 231 231 230 230 230 229 230 232 235 236 235 236 237 237 238 238 238 237 236 236 237 236 236 237 237
209 210 211 212 212 213 213 213 213 213 213 214 214 215 215 214 215 216 219 220 220 219 220 219 218 219 221 222 224 226 227 229 232 233 233 232 232 232 233 233 232 231 230 230 230 231 233 237 238 237 236 236 237 237 238 238 237 237 236 237 236 236 236
209 211 212 211 212 214 215 214 214 214 215 215 216 215 214 214 215 216 218 220 220 220 220 219 219 219 220 222 223 226 227 229 231 232 233 233 233 233 234 234 234 233 231 230 230 230 231 234 237 238 238 236 236 236 238 239 239 239 238 238 238 237 237
Height
10812 10815 10820 10824 10828 10835 10839 10845 10854 10860 10858 10857 10862 10867 10868 10870 10877 10882 10886 10889 10888 10888 10894 10900 10903 10907 10910 10914 10917 10920 10927 10932 10936 10940 10941 10940 10939 10941 10945 10947 10948 10952 10954 10956 10958 10959 10961 10963 10965 10967 10969 10971 10973 10976 10978 10980 10982 10985 10988 10990 10992 10993 10994
10805 10806 10810 10814 10820 10826 10833 10842 10848 10846 10844 10849 10858 10862 10863 10869 10876 10878 10880 10882 10882 10886 10891 10894 10898 10902 10905 10909 10911 10914 10920 10926 10931 10935 10936 10935 10934 10935 10941 10943 10945 10948 10950 10952 10953 10954 10956 10958 10961 10965 10968 10970 10971 10974 10976 10977 10979 10982 10985 10988 10989 10990 10991
10793 10793 10795 10804 10814 10823 10831 10837 10836 10835 10840 10849 10855 10858 10861 10866 10870 10871 10873 10875 10879 10883 10886 10888 10893 10897 10900 10904 10907 10910 10914 10920 10926 10929 10929 10930 10930 10931 10935 10939 10942 10944 10946 10948 10949 10950 10953 10955 10958 10961 10964 10967 10969 10971 10973 10975 10977 10979 10982 10985 10986 10987 10988
10778 10778 10785 10800 10814 10821 10826 10828 10828 10832 10840 10845 10850 10853 10855 10859 10862 10865 10867 10871 10876 10879 10878 10882 10888 10891 10894 10899 10903 10905 10908 10914 10919 10921 10921 10924 10927 10926 10927 10934 10939 10939 10942 10945 10945 10948 10951 10953 10956 10958 10961 10964 10965 10967 10970 10972 10975 10977 10980 10982 10984 10985 10987
10763 10770 10787 10806 10814 10816 10820 10823 10826 10831 10836 10840 10846 10848 10851 10855 10858 10860 10864 10868 10871 10871 10873 10879 10884 10886 10890 10894 10897 10899 10902 10907 10912 10914 10914 10919 10924 10923 10921 10927 10934 10936 10939 10942 10943 10946 10948 10949 10953 10955 10957 10961 10962 10964 10966 10970 10973 10975 10978 10980 10982 10984 10986
10758 10774 10794 10803 10804 10806 10811 10815 10819 10823 10827 10833 10840 10843 10846 10849 10852 10855 10858 10861 10863 10865 10871 10877 10879 10882 10887 10889 10891 10894 10896 10900 10906 10908 10909 10914 10922 10922 10918 10922 10930 10933 10936 10938 10940 10942 10944 10946 10949 10951 10954 10957 10959 10960 10962 10966 10970 10974 10977 10979 10981 10983 10984
10760 10775 10786 10789 10790 10793 10798 10803 10808 10813 10819 10826 10835 10838 10838 10841 10845 10847 10850 10854 10856 10860 10868 10872 10875 10879 10880 10881 10884 10887 10889 10893 10900 10904 10904 10909 10917 10920 10917 10918 10924 10930 10932 10933 10936 10939 10941 10944 10946 10948 10950 10953 10956 10957 10958 10962 10967 10972 10976 10978 10980 10981 10982
10759 10764 10769 10775 10777 10778 10785 10795 10803 10811 10816 10823 10829 10830 10829 10833 10838 10840 10845 10849 10850 10855 10863 10866 10870 10872 10871 10872 10877 10881 10882 10886 10894 10899 10900 10903 10910 10916 10917 10914 10917 10925 10928 10928 10931 10934 10937 10940 10942 10944 10946 10949 10953 10954 10954 10957 10963 10969 10973 10976 10978 10979 10979
10747 10751 10755 10764 10767 10770 10783 10796 10803 10810 10814 10816 10820 10822 10823 10828 10834 10837 10840 10843 10845 10851 10858 10861 10864 10865 10864 10867 10873 10876 10878 10883 10892 10897 10896 10899 10904 10911 10914 10911 10913 10921 10924 10924 10928 10930 10933 10936 10938 10940 10942 10944 10947 10949 10950 10953 10958 10964 10969 10973 10975 10976 10976
10740 10746 10750 10762 10772 10776 10786 10795 10800 10804 10806 10808 10813 10817 10820 10825 10830 10833 10835 10837 10840 10847 10853 10856 10858 10858 10860 10866 10870 10872 10875 10880 10889 10893 10892 10894 10898 10904 10908 10909 10912 10918 10920 10921 10924 10926 10929 10932 10934 10936 10937 10939 10942 10945 10947 10949 10953 10959 10964 10968 10971 10972 10972
10735 10742 10748 10762 10772 10773 10779 10787 10791 10794 10797 10801 10806 10811 10817 10821 10824 10828 10830 10831 10837 10845 10848 10849 10851 10853 10859 10863 10865 10868 10871 10876 10882 10886 10886 10887 10891 10897 10902 10905 10908 10913 10916 10918 10921 10924 10927 10930 10931 10933 10934 10936 10938 10941 10944 10946 10948 10953 10958 10963 10966 10968 10968
10724 10734 10744 10754 10760 10764 10769 10776 10782 10787 10792 10797 10802 10808 10813 10815 10817 10821 10823 10825 10834 10842 10841 10841 10846 10851 10856 10859 10860 10863 10866 10869 10875 10879 10880 10882 10886 10892 10897 10899 10903 10908 10912 10916 10919 10922 10925 10927 10929 10931 10932 10935 10937 10939 10941 10942 10944 10948 10952 10957 10960 10963 10964
10714 10725 10733 10739 10748 10756 10760 10765 10774 10782 10786 10792 10800 10804 10805 10807 10812 10816 10817 10820 10830 10836 10832 10833 10842 10847 10851 10855 10856 10858 10861 10865 10870 10873 10874 10877 10882 10887 10891 10894 10898 10904 10909 10913 10917 10920 10922 10924 10927 10929 10930 10933 10935 10937 10938 10940 10941 10943 10947 10951 10955 10958 10960
10705 10712 10719 10729 10741 10750 10754 10760 10769 10777 10782 10788 10794 10795 10796 10801 10805 10809 10811 10815 10823 10827 10824 10827 10837 10843 10847 10850 10851 10853 10857 10860 10863 10865 10868 10873 10877 10882 10886 10890 10894 10900 10905 10909 10912 10916 10918 10920 10923 10925 10927 10930 10932 10934 10936 10938 10939 10940 10942 10946 10950 10953 10955
10694 10702 10713 10723 10734 10743 10749 10755 10763 10773 10780 10783 10784 10786 10790 10795 10799 10803 10808 10809 10814 10819 10820 10824 10832 10838 10843 10846 10848 10850 10851 10853 10857 10860 10864 10869 10873 10878 10882 10886 10890 10896 10900 10904 10908 10910 10912 10914 10917 10920 10923 10925 10928 10930 10932 10934 10936 10938 10939 10942 10945 10948 10951
10687 10699 10710 10715 10725 10737 10747 10754 10760 10769 10776 10778 10778 10782 10787 10791 10794 10798 10801 10803 10808 10815 10817 10820 10826 10832 10839 10844 10846 10845 10845 10848 10853 10855 10859 10864 10868 10872 10875 10878 10883 10889 10894 10898 10901 10903 10906 10908 10911 10915 10918 10921 10923 10925 10928 10930 10933 10935 10937 10939 10941 10944 10947
10682 10694 10702 10706 10719 10735 10745 10752 10757 10762 10767 10771 10772 10775 10780 10784 10787 10790 10795 10798 10802 10808 10811 10814 10820 10828 10837 10842 10842 10840 10840 10844 10848 10850 10854 10858 10862 10866 10870 10873 10877 10883 10888 10892 10895 10897 10900 10902 10905 10909 10912 10916 10918 10921 10924 10926 10929 10931 10933 10936 10939 10941 10944
10674 10686 10694 10699 10712 10728 10738 10746 10749 10748 10751 10756 10760 10764 10771 10777 10780 10784 10789 10792 10794 10799 10803 10807 10815 10823 10831 10836 10836 10833 10833 10837 10842 10846 10850 10855 10860 10865 10869 10871 10873 10878 10884 10888 10891 10892 10894 10897 10900 10904 10908 10911 10914 10917 10920 10922 10925 10927 10930 10932 10935 10938 10941
10669 10680 10687 10693 10706 10721 10732 10739 10736 10731 10735 10744 10752 10758 10761 10763 10769 10775 10778 10781 10785 10790 10795 10801 10810 10818 10824 10829 10830 10828 10829 10833 10839 10845 10850 10856 10860 10864 10866 10866 10869 10873 10879 10883 10884 10886 10889 10893 10897 10901 10904 10907 10911 10914 10916 10919 10922 10924 10926 10929 10932 10934 10937
10664 10672 10678 10686 10700 10714 10723 10724 10719 10718 10726 10737 10747 10751 10747 10747 10755 10764 10768 10770 10775 10781 10788 10796 10805 10812 10818 10823 10825 10826 10829 10832 10837 10844 10851 10855 10858 10860 10862 10864 10866 10870 10873 10876 10878 10881 10886 10891 10894 10897 10901 10904 10907 10910 10913 10916 10919 10921 10924 10925 10928 10930 10933
10653 10660 10667 10677 10690 10701 10706 10705 10704 10709 10716 10724 10733 10736 10735 10740 10751 10758 10761 10762 10766 10773 10781 10789 10798 10806 10812 10818 10823 10826 10829 10832 10836 10842 10850 10854 10856 10857 10858 10859 10862 10864 10866 10869 10873 10878 10883 10887 10890 10893 10897 10901 10903 10906 10910 10913 10915 10918 10920 10922 10924 10927 10929
10639 10647 10656 10666 10677 10685 10689 10692 10698 10701 10705 10714 10722 10725 10729 10739 10747 10750 10754 10756 10757 10763 10774 10786 10795 10801 10805 10812 10821 10827 10829 10832 10835 10840 10846 10850 10852 10852 10853 10854 10855 10858 10861 10865 10869 10875 10879 10883 10885 10889 10892 10896 10899 10902 10905 10908 10912 10914 10916 10918 10920 10923 10926
10629 10639 10648 10655 10664 10672 10679 10687 10693 10695 10702 10711 10717 10719 10726 10735 10737 10738 10743 10749 10751 10757 10771 10784 10792 10796 10801 10810 10821 10827 10828 10831 10834 10838 10843 10846 10848 10848 10848 10848 10851 10856 10860 10863 10866 10871 10875 10878 10881 10885 10888 10891 10895 10898 10900 10904 10907 10910 10912 10914 10917 10920 10922
10622 10632 10639 10646 10655 10664 10672 10679 10685 10692 10702 10709 10711 10715 10720 10725 10729 10731 10736 10746 10754 10763 10775 10787 10793 10798 10804 10812 10819 10824 10825 10828 10832 10835 10839 10841 10842 10843 10844 10845 10849 10854 10857 10859 10863 10868 10871 10873 10876 10880 10884 10887 10889 10892 10895 10898 10901 10904 10907 10911 10914 10916 10918
10616 10625 10629 10636 10649 10659 10665 10672 10679 10688 10698 10701 10702 10707 10709 10714 10723 10728 10733 10747 10762 10770 10778 10788 10796 10802 10808 10812 10814 10816 10818 10823 10828 10831 10833 10835 10836 10839 10841 10842 10845 10850 10853 10856 10860 10863 10864 10867 10870 10874 10878 10881 10883 10886 10890 10892 10895 10899 10903 10907 10910 10912 10914
10609 10616 10620 10629 10641 10650 10656 10664 10673 10682 10689 10690 10692 10698 10701 10707 10717 10726 10733 10747 10762 10770 10775 10783 10793 10802 10807 10808 10806 10806 10809 10815 10821 10823 10825 10828 10831 10835 10838 10839 10841 10846 10849 10852 10854 10856 10857 10860 10865 10869 10873 10876 10879 10882 10885 10887 10891 10895 10898 10901 10904 10906 10908
10600 10607 10612 10621 10632 10639 10646 10656 10664 10671 10678 10682 10687 10693 10697 10701 10712 10724 10734 10746 10756 10764 10770 10778 10787 10794 10797 10797 10795 10795 10798 10804 10811 10816 10819 10823 10829 10834 10836 10836 10837 10841 10844 10847 10849 10850 10851 10856 10860 10863 10867 10870 10873 10877 10880 10883 10886 10889 10892 10894 10897 10899 10902
10586 10593 10599 10610 10622 10630 10637 10645 10652 10659 10667 10674 10680 10686 10691 10696 10707 10722 10734 10743 10750 10757 10765 10773 10779 10783 10784 10784 10785 10787 10789 10795 10804 10811 10815 10820 10826 10831 10832 10831 10832 10836 10840 10842 10844 10845 10847 10851 10855 10858 10861 10864 10867 10871 10873 10876 10879 10883 10885 10887 10890 10893 10895
10576 10582 10589 10601 10614 10621 10628 10636 10643 10651 10660 10667 10672 10678 10685 10692 10702 10716 10728 10737 10743 10750 10758 10765 10771 10774 10774 10775 10778 10782 10786 10790 10797 10805 10811 10816 10821 10825 10827 10827 10828 10833 10837 10838 10840 10841 10844 10847 10850 10853 10856 10858 10861 10863 10866 10869 10873 10876 10878 10880 10883 10886 10889
10571 10577 10583 10593 10604 10613 10622 10630 10638 10646 10655 10662 10668 10675 10681 10687 10695 10707 10720 10729 10736 10744 10751 10757 10762 10765 10767 10769 10772 10777 10781 10785 10790 10797 10805 10811 10815 10819 10822 10823 10825 10830 10834 10834 10836 10837 10840 10843 10846 10849 10851 10853 10855 10857 10860 10863 10866 10869 10872 10874 10876 10878 10881
10562 10567 10572 10582 10595 10606 10616 10623 10629 10637 10645 10653 10661 10668 10675 10681 10688 10698 10710 10720 10728 10736 10743 10748 10753 10757 10760 10762 10766 10771 10775 10779 10784 10790 10798 10805 10810 10813 10816 10818 10821 10826 10829 10831 10831 10833 10835 10838 10842 10845 10846 10847 10849 10852 10855 10857 10860 10863 10866 10867 10869 10871 10874
10548 10554 10564 10577 10590 10601 10608 10613 10619 10627 10635 10642 10650 10657 10665 10673 10680 10691 10703 10713 10720 10728 10734 10739 10744 10749 10753 10757 10761 10766 10770 10773 10778 10783 10791 10798 10803 10806 10810 10813 10816 10820 10824 10826 10827 10829 10831 10834 10837 10840 10841 10843 10845 10847 10850 10852 10855 10858 10860 10862 10863 10865 10868
10538 10548 10559 10568 10579 10591 10597 10600 10607 10618 10626 10634 10642 10649 10656 10665 10675 10685 10696 10705 10712 10719 10725 10732 10738 10743 10747 10751 10756 10761 10764 10767 10771 10777 10784 10790 10795 10800 10804 10808 10811 10815 10818 10821 10823 10824 10827 10829 10832 10834 10836 10838 10840 10842 10845 10848 10850 10852 10855 10857 10859 10860 10862
10533 10540 10546 10553 10563 10575 10581 10587 10599 10612 10620 10629 10637 10644 10652 10661 10671 10680 10688 10696 10704 10711 10718 10725 10732 10736 10740 10745 10750 10755 10759 10761 10765 10771 10776 10782 10788 10793 10797 10802 10805 10809 10812 10815 10817 10819 10821 10825 10827 10829 10831 10833 10834 10836 10839 10842 10845 10847 10850 10853 10854 10855 10857
10530 10536 10542 10550 10560 10568 10573 10585 10601 10612 10620 10629 10637 10643 10650 10659 10668 10675 10681 10687 10695 10703 10710 10719 10726 10730 10734 10740 10745 10749 10753 10755 10759 10764 10770 10775 10781 10786 10790 10794 10798 10802 10806 10809 10811 10814 10816 10819 10821 10823 10825 10827 10829 10831 10834 10837 10840 10843 10845 10847 10849 10850 10852
10527 10533 10539 10550 10561 10568 10576 10589 10602 10611 10619 10627 10633 10639 10649 10658 10665 10671 10676 10681 10689 10697 10704 10712 10719 10724 10729 10735 10739 10743 10748 10751 10754 10758 10763 10768 10774 10778 10782 10786 10790 10795 10799 10803 10806 10808 10811 10813 10815 10816 10819 10821 10824 10827 10829 10831 10835 10837 10839 10841 10843 10845 10847
10522 10526 10533 10544 10555 10564 10573 10586 10598 10608 10616 10623 10629 10637 10646 10654 10660 10666 10671 10676 10684 10692 10700 10707 10713 10718 10723 10729 10733 10737 10741 10744 10747 10751 10756 10761 10766 10769 10773 10778 10782 10787 10792 10796 10799 10802 10805 10807 10808 10809 10812 10815 10819 10822 10824 10826 10829 10831 10833 10835 10838 10840 10843